Location: Farrell Lake Number 1 Dam
(31.9835°N, 97.7520°W)
Time: 00:25:47
(UTC+00:00)

Daily predictions for brighter satellites

Satellite Brightness Start Highest point End
(mag) Time Altitude Azimuth Time Altitude Azimuth Time Altitude Azimuth
Cosmos 1606 2.4 00:03:22 10° SSW 00:06:02 61° W 00:08:44 10° N
SJ-12 3.7 00:04:35 10° SSE 00:08:20 59° ENE 00:12:05 10° N
Cosmos 2016 Rocket 4.0 00:04:48 10° S 00:10:55 65° E 00:17:08 10° NNE
CORIOLIS 4.3 00:05:46 10° SSE 00:11:11 85° W 00:16:34 10° NNW
SAR-Lupe-4 3.6 00:08:04 10° S 00:11:38 84° WSW 00:15:13 10° NNW
USA 215 4.0 00:08:51 10° SSE 00:15:16 59° SW 00:21:45 10° NW
Cosmos 909 Rocket 4.4 00:09:35 10° NNW 00:15:35 46° ENE 00:22:00 10° SE
CZ-2D R/B 4.4 00:13:44 10° SE 00:16:59 24° ENE 00:20:17 10° NNE
Cosmos 1378 Rocket 4.1 00:14:20 10° NNW 00:18:35 62° W 00:22:52 10° S
SPOT 1/Viking Rocket 4.2 00:15:37 10° SE 00:20:07 32° ENE 00:24:39 10° N
Cosmos 1943 Rocket 4.0 00:18:54 10° ESE 00:20:10 11° E 00:20:25 11° E
Cosmos 1782 Rocket 4.0 00:16:03 10° SSE 00:20:11 40° E 00:24:20 10° NNE
Cosmos 1818 4.2 00:15:35 10° NW 00:20:55 61° WSW 00:26:14 10° SSE
ARIANE 5 R/B 2.6 00:17:10 10° SSE 00:22:10 83° WSW 00:27:09 10° NNW
Tiangong 0.2 00:20:42 10° NW 00:22:35 15° N 00:24:28 10° NE
SWARM A 4.3 00:26:28 10° N 00:29:47 80° W 00:33:05 10° S
Cosmos 2061 Rocket 4.1 00:24:12 10° S 00:30:26 60° E 00:36:38 10° NNE
Cosmos 1140 Rocket 4.0 00:26:45 10° SSE 00:31:31 38° E 00:36:17 10° NE
SKYMED 2 3.5 00:30:42 10° NNE 00:35:04 87° ESE 00:39:24 10° SSW
Cosmos 1908 Rocket 4.3 00:31:40 10° SSW 00:35:56 55° W 00:40:16 10° N
COSMO-SKYMED 1 2.4 00:32:00 10° NNE 00:36:05 59° E 00:40:07 10° S
SMAP 4.4 00:32:22 10° S 00:36:46 43° W 00:41:13 10° NNW
Cosmos 1300 Rocket 3.5 00:36:37 10° S 00:41:01 86° E 00:45:25 10° N
Cosmos 1833 Rocket 4.1 00:40:58 10° NNE 00:44:22 18° NE 00:44:22 18° NE
Delta 2 Rocket 3.5 00:42:58 10° W 00:46:54 53° N 00:48:35 29° NE
Cosmos 1975 Rocket 3.7 00:45:37 10° NNE 00:49:25 29° E 00:53:12 10° SE
Cosmos 1441 Rocket 2.8 00:47:24 10° N 00:50:40 55° E 00:53:57 10° SSE
Cosmos 2221 Rocket 4.1 00:46:26 10° NNW 00:50:52 61° W 00:55:14 10° S
VEP-3 3.8 00:42:45 10° W 00:51:19 42° SSW 00:55:45 14° ESE
Cosmos 1603 4.2 00:49:42 10° NNW 00:55:16 61° WSW 01:00:47 10° S
Spot 4 Rocket 3.9 00:57:02 10° SSE 01:02:06 76° ENE 01:07:12 10° N
Cosmos 2084 Rocket 3.2 00:58:27 10° SSW 01:02:36 85° ESE 01:04:22 34° NNE
SJ-7 4.0 01:04:56 10° SSE 01:08:39 88° W 01:12:20 10° NNW
PSLV R/B 3.3 01:08:19 10° SSE 01:12:25 88° ENE 01:16:30 10° NNW
Cosmos 407 Rocket 3.6 01:08:01 10° S 01:13:02 47° ESE 01:13:36 46° E
Cosmos 1869 3.5 01:10:31 10° S 01:13:10 46° SSE 01:13:10 46° SSE
Cosmos 1464 Rocket 4.2 01:13:00 10° SSE 01:18:58 45° E 01:20:08 41° ENE
NOSS 3-4 (A) 3.9 01:13:15 10° NNW 01:20:32 72° ENE 01:28:23 12° SE
NOSS 3-4 (C) 3.9 01:13:20 10° NNW 01:20:37 71° ENE 01:28:09 13° SE
NOAA 6 3.9 01:16:34 10° SSE 01:21:41 73° ENE 01:26:49 10° N
Resurs 1-3 3.6 01:18:59 10° S 01:23:16 75° W 01:27:34 10° NNW
ATLAS CENTAUR R/B 4.0 01:24:23 10° WNW 01:25:27 11° NW 01:26:32 10° NNW
Cosmos 2278 Rocket 2.5 01:20:32 10° S 01:25:12 45° SE 01:25:12 45° SE
YAOGAN 1 3.5 01:31:31 10° S 01:35:36 46° W 01:39:43 10° NNW
USA 281 3.5 01:39:32 47° NE 01:39:32 47° NE 01:44:54 10° N
SL-12 R/B(2) 4.1 01:31:08 10° SSW 01:38:38 82° WNW 01:44:53 22° NNE
OAO 2 Rocket 3.7 01:36:12 10° SW 01:40:43 57° S 01:40:43 57° S
OAO 3 Copernicus 4.4 01:38:58 10° WSW 01:43:34 73° W 01:43:34 73° W
Cosmos 1072 Rocket 4.3 01:41:02 10° S 01:47:17 87° E 01:49:40 41° N
Cosmos 1943 Rocket 2.6 01:57:30 10° SSW 02:02:00 56° SW 02:02:00 56° SW
Timation 2 Rocket 4.5 02:01:31 10° SSW 02:08:12 63° WNW 02:09:56 48° NNW
Cosmos 1833 Rocket 4.4 02:23:32 10° NNW 02:26:07 27° NW 02:26:07 27° NW
NOSS 3-1 (A) 3.9 10:29:28 39° ESE 10:29:28 39° ESE 10:33:52 10° NE
DELTA 2 R/B (1) 3.8 10:45:20 56° S 10:45:20 56° S 10:50:09 10° SE
Cosmos 1153 Rocket 4.4 10:43:36 10° N 10:49:49 88° E 10:56:05 10° S
Cosmos 1340 Rocket 3.2 11:00:18 53° SE 11:00:18 53° SE 11:03:20 10° SSE
Cosmos 1943 Rocket 4.4 10:55:57 10° NNE 11:00:04 21° ENE 11:04:11 10° ESE
PAYLOAD A 4.0 10:55:35 10° N 11:00:41 62° WNW 11:00:41 62° WNW
CZ-2C R/B 4.3 10:57:05 10° N 10:58:22 18° N 10:58:22 18° N
Meteor 2-14 Rocket 4.3 10:57:08 10° SSW 11:03:09 61° W 11:09:11 10° N
USA 234 3.9 10:57:11 10° ESE 11:03:26 50° NE 11:08:18 17° NNW
Cosmos 1066 4.5 11:06:36 10° S 11:12:02 82° W 11:17:33 10° N
SL-16 R/B 3.7 11:07:07 10° SSW 11:10:12 25° SW 11:10:12 25° SW
Intercosmos 25 Rocket 4.5 11:22:45 37° W 11:23:25 39° WNW 11:29:46 10° N
IRS-1D 3.4 11:21:38 10° NNE 11:26:36 88° ESE 11:31:30 10° SSW
UNK 4.1 11:23:07 10° SSW 11:27:19 39° W 11:27:44 38° W
COSMOS 2428 3.3 11:29:57 31° WNW 11:30:41 32° WNW 11:35:44 10° N
NOSS 0 Rocket 4.0 11:29:22 10° SW 11:35:17 50° WNW 11:41:15 10° N
Cosmos 2100 Rocket 3.9 11:29:41 10° NNW 11:35:44 62° W 11:41:48 10° S
Cosmos 1703 Rocket 3.7 11:36:50 10° SSW 11:40:58 47° W 11:45:11 10° N
Helios 1A Rocket 3.3 11:40:52 10° SSE 11:44:09 50° ENE 11:47:26 10° N
Cosmos 1023 Rocket 4.3 11:39:55 10° NNW 11:44:58 74° WSW 11:49:59 10° S
Cosmos 921 Rocket 3.7 11:43:43 23° NW 11:45:37 33° W 11:49:34 10° SSW
BlueWalker 3 3.7 11:42:59 10° NNW 11:45:57 24° NE 11:48:56 10° E
Cosmos 1980 3.8 11:44:13 10° SW 11:49:41 52° WNW 11:55:12 10° N
